N299EZ KLAX-KSAN

Flight info

Callsign N299EZ
Flight time N/A
Altitude VFR/095
Route
Aircraft P28B/L-VGD/C

Departure

Time N/A
Airport Los Angeles International Airport (KLAX)

Arrival

Time 2026-04-26 04:23
Airport San Diego International Airport (KSAN)
Time Latitude Longitude Altitude Speed Heading
2026-04-26 02:15 33.67612 -117.86560 56 ft 0 kts 240°
2026-04-26 02:24 33.67611 -117.86562 56 ft 2 kts 244°
2026-04-26 02:25 33.67656 -117.86555 56 ft 16 kts 28°
2026-04-26 02:25 33.67805 -117.86462 51 ft 31 kts 31°
2026-04-26 02:25 33.67942 -117.86373 49 ft 23 kts 27°
2026-04-26 02:25 33.68058 -117.86308 46 ft 13 kts 347°
2026-04-26 02:26 33.68071 -117.86321 46 ft 0 kts 297°
2026-04-26 02:27 33.68079 -117.86337 45 ft 8 kts 299°
2026-04-26 02:27 33.68079 -117.86376 45 ft 7 kts 212°
2026-04-26 02:28 33.68076 -117.86378 45 ft 2 kts 204°
2026-04-26 02:28 33.67926 -117.86474 51 ft 49 kts 208°
2026-04-26 02:28 33.67503 -117.86743 101 ft 82 kts 207°
2026-04-26 02:28 33.66962 -117.87068 292 ft 89 kts 210°
2026-04-26 02:29 33.66402 -117.87436 517 ft 92 kts 210°
2026-04-26 02:29 33.65836 -117.87788 755 ft 93 kts 207°
2026-04-26 02:29 33.65173 -117.87850 745 ft 109 kts 153°
2026-04-26 02:29 33.64497 -117.87584 923 ft 97 kts 144°
2026-04-26 02:30 33.63889 -117.87279 1047 ft 93 kts 142°
2026-04-26 02:30 33.63274 -117.86965 1107 ft 97 kts 141°
2026-04-26 02:30 33.62685 -117.86644 1265 ft 90 kts 146°
2026-04-26 02:30 33.62098 -117.86294 1283 ft 99 kts 126°
2026-04-26 02:31 33.61614 -117.85780 1457 ft 91 kts 106°
2026-04-26 02:31 33.61621 -117.85058 1549 ft 90 kts 62°
2026-04-26 02:31 33.61907 -117.84417 1629 ft 89 kts
2026-04-26 02:31 33.62580 -117.84271 1595 ft 101 kts 345°
2026-04-26 02:32 33.63319 -117.84199 1539 ft 110 kts 353°
2026-04-26 02:32 33.64080 -117.84034 1522 ft 113 kts 14°
2026-04-26 02:32 33.64479 -117.83181 1406 ft 121 kts 61°
2026-04-26 02:32 33.64742 -117.82330 1560 ft 111 kts 41°
2026-04-26 02:33 33.65189 -117.81528 1464 ft 122 kts 34°
2026-04-26 02:33 33.65714 -117.80813 1669 ft 104 kts 51°
2026-04-26 02:33 33.66069 -117.79954 1773 ft 115 kts 65°
2026-04-26 02:33 33.66371 -117.79087 2051 ft 108 kts 67°
2026-04-26 02:34 33.66628 -117.78240 2264 ft 109 kts 73°
2026-04-26 02:34 33.66794 -117.77403 2553 ft 102 kts 78°
2026-04-26 02:34 33.66926 -117.76575 2785 ft 101 kts 78°
2026-04-26 02:34 33.67105 -117.75752 3006 ft 102 kts 70°
2026-04-26 02:35 33.67409 -117.74988 3221 ft 102 kts 58°
2026-04-26 02:35 33.67779 -117.74258 3435 ft 102 kts 57°
2026-04-26 02:35 33.68135 -117.73534 3677 ft 98 kts 62°
2026-04-26 02:35 33.68409 -117.72803 3885 ft 99 kts 67°
2026-04-26 02:36 33.68660 -117.72021 4091 ft 99 kts 66°
2026-04-26 02:36 33.68932 -117.71268 4269 ft 101 kts 63°
2026-04-26 02:36 33.69273 -117.70522 4442 ft 102 kts 62°
2026-04-26 02:36 33.69529 -117.69756 4688 ft 96 kts 72°
2026-04-26 02:37 33.69758 -117.68978 4829 ft 102 kts 59°
2026-04-26 02:37 33.70190 -117.68311 5037 ft 99 kts 45°
2026-04-26 02:37 33.70667 -117.67716 5219 ft 101 kts 44°
2026-04-26 02:37 33.71161 -117.67111 5423 ft 101 kts 45°
2026-04-26 02:38 33.71600 -117.66463 5629 ft 102 kts 49°
2026-04-26 02:38 33.72041 -117.65798 5834 ft 102 kts 49°
2026-04-26 02:38 33.72421 -117.65069 5966 ft 109 kts 69°
2026-04-26 02:38 33.72653 -117.64210 6207 ft 104 kts 70°
2026-04-26 02:39 33.72892 -117.63387 6369 ft 106 kts 70°
2026-04-26 02:39 33.73127 -117.62547 6591 ft 103 kts 52°
2026-04-26 02:39 33.73668 -117.61859 6394 ft 127 kts 34°
2026-04-26 02:39 33.73902 -117.60967 6786 ft 100 kts 92°
2026-04-26 02:40 33.73907 -117.60153 7007 ft 98 kts 86°
2026-04-26 02:40 33.73999 -117.59370 7198 ft 97 kts 75°
2026-04-26 02:40 33.74153 -117.58539 7323 ft 103 kts 78°
2026-04-26 02:40 33.74320 -117.57704 7500 ft 103 kts 75°
2026-04-26 02:41 33.74488 -117.56899 7721 ft 99 kts 75°
2026-04-26 02:41 33.74663 -117.56090 7863 ft 102 kts 73°
2026-04-26 02:41 33.74848 -117.55272 8057 ft 100 kts 72°
2026-04-26 02:41 33.75055 -117.54459 8185 ft 104 kts 72°
2026-04-26 02:42 33.75236 -117.53630 8397 ft 100 kts 77°
2026-04-26 02:42 33.75373 -117.52811 8564 ft 100 kts 77°
2026-04-26 02:42 33.75505 -117.51997 8720 ft 99 kts 78°
2026-04-26 02:42 33.75643 -117.51199 8885 ft 98 kts 74°
2026-04-26 02:43 33.76010 -117.49569 9210 ft 97 kts 73°
2026-04-26 02:43 33.76201 -117.48795 9354 ft 99 kts 72°
2026-04-26 02:43 33.76409 -117.47964 9445 ft 106 kts 73°
2026-04-26 02:44 33.76534 -117.47398 9555 ft 106 kts 76°
2026-04-26 02:44 33.76709 -117.46550 9736 ft 103 kts 74°
2026-04-26 02:44 33.76903 -117.45720 9884 ft 105 kts 72°
2026-04-26 02:44 33.77094 -117.44874 10047 ft 104 kts 76°
2026-04-26 02:45 33.77282 -117.44033 10192 ft 106 kts 73°
2026-04-26 02:45 33.77478 -117.43182 10367 ft 104 kts 70°
2026-04-26 02:45 33.77751 -117.42060 10519 ft 109 kts 73°
2026-04-26 02:45 33.77889 -117.41469 10619 ft 108 kts 72°
2026-04-26 02:46 33.78056 -117.40588 10738 ft 110 kts 81°
2026-04-26 02:46 33.78162 -117.39682 10891 ft 108 kts 84°
2026-04-26 02:46 33.78239 -117.38789 11046 ft 107 kts 79°
2026-04-26 02:46 33.78371 -117.37901 11155 ft 109 kts 79°
2026-04-26 02:47 33.78503 -117.37012 11289 ft 109 kts 78°
2026-04-26 02:47 33.78659 -117.36109 11418 ft 109 kts 77°
2026-04-26 02:47 33.78840 -117.35199 11485 ft 116 kts 74°
2026-04-26 02:47 33.79050 -117.34265 11613 ft 115 kts 73°
2026-04-26 02:48 33.79275 -117.33334 11700 ft 119 kts 71°
2026-04-26 02:48 33.79533 -117.32385 11828 ft 118 kts 71°
2026-04-26 02:48 33.79792 -117.31427 11833 ft 128 kts 71°
2026-04-26 02:48 33.80082 -117.30385 11835 ft 134 kts 71°
2026-04-26 02:49 33.80325 -117.29275 11837 ft 139 kts 79°
2026-04-26 02:49 33.80492 -117.28149 11934 ft 135 kts 80°
2026-04-26 02:49 33.80664 -117.27038 11997 ft 136 kts 77°
2026-04-26 02:49 33.80922 -117.25942 12051 ft 136 kts 72°
2026-04-26 02:50 33.81107 -117.24819 12058 ft 139 kts 80°
2026-04-26 02:50 33.81288 -117.23641 11982 ft 147 kts 79°
2026-04-26 02:50 33.81486 -117.22383 11831 ft 156 kts 78°
2026-04-26 02:50 33.81705 -117.21118 11762 ft 158 kts 78°
2026-04-26 02:51 33.81947 -117.19814 11684 ft 158 kts 76°
2026-04-26 02:51 33.82206 -117.18529 11590 ft 160 kts 75°
2026-04-26 02:51 33.82491 -117.17224 11491 ft 161 kts 75°
2026-04-26 02:51 33.82784 -117.15942 11452 ft 158 kts 74°
2026-04-26 02:52 33.83088 -117.14681 11352 ft 160 kts 73°
2026-04-26 02:52 33.83411 -117.13405 11295 ft 159 kts 72°
2026-04-26 02:52 33.83745 -117.12140 11237 ft 158 kts 71°
2026-04-26 02:52 33.84065 -117.10869 11153 ft 159 kts 74°
2026-04-26 02:53 33.84349 -117.09583 11092 ft 158 kts 75°
2026-04-26 02:53 33.84611 -117.08296 11034 ft 158 kts 76°
2026-04-26 02:53 33.84842 -117.07002 10968 ft 158 kts 78°
2026-04-26 02:53 33.85050 -117.05699 10915 ft 158 kts 79°
2026-04-26 02:54 33.85241 -117.04400 10859 ft 158 kts 79°
2026-04-26 02:54 33.85465 -117.03144 10953 ft 148 kts 76°
2026-04-26 02:54 33.85709 -117.01949 10995 ft 147 kts 75°
2026-04-26 02:54 33.85964 -117.00752 11004 ft 147 kts 75°
2026-04-26 02:55 33.86191 -116.99597 11155 ft 138 kts 77°
2026-04-26 02:55 33.86421 -116.98471 11188 ft 141 kts 75°
2026-04-26 02:55 33.86697 -116.97338 11237 ft 140 kts 71°
2026-04-26 02:55 33.87013 -116.96235 11305 ft 139 kts 71°
2026-04-26 02:56 33.87257 -116.95115 11347 ft 140 kts 76°
2026-04-26 02:56 33.87471 -116.93969 11385 ft 141 kts 78°
2026-04-26 02:56 33.87668 -116.92813 11442 ft 140 kts 78°
2026-04-26 02:56 33.87874 -116.91664 11483 ft 141 kts 76°
2026-04-26 02:57 33.88101 -116.90510 11526 ft 141 kts 77°
2026-04-26 02:57 33.88292 -116.89347 11575 ft 142 kts 79°
2026-04-26 02:57 33.88470 -116.88184 11613 ft 142 kts 78°
2026-04-26 02:57 33.88669 -116.87019 11658 ft 142 kts 77°
2026-04-26 02:58 33.88887 -116.85857 11692 ft 142 kts 78°
2026-04-26 02:58 33.89105 -116.84694 11718 ft 142 kts 76°
2026-04-26 02:58 33.89331 -116.83539 11771 ft 142 kts 77°
2026-04-26 02:58 33.89542 -116.82377 11805 ft 142 kts 77°
2026-04-26 02:59 33.89756 -116.81215 11855 ft 142 kts 77°
2026-04-26 02:59 33.89969 -116.80056 11859 ft 144 kts 77°
2026-04-26 02:59 33.90173 -116.78855 11845 ft 146 kts 79°
2026-04-26 02:59 33.90346 -116.77679 11899 ft 144 kts 80°
2026-04-26 03:00 33.90500 -116.76482 11897 ft 146 kts 81°
2026-04-26 03:00 33.90652 -116.75278 11921 ft 145 kts 78°
2026-04-26 03:00 33.90867 -116.74092 11931 ft 145 kts 78°
2026-04-26 03:00 33.91059 -116.72897 11952 ft 145 kts 79°
2026-04-26 03:01 33.91261 -116.71708 11975 ft 145 kts 77°
2026-04-26 03:01 33.91481 -116.70520 11990 ft 145 kts 77°
2026-04-26 03:01 33.91709 -116.69336 12009 ft 145 kts 75°
2026-04-26 03:01 33.91963 -116.68161 12029 ft 145 kts 74°
2026-04-26 03:02 33.92237 -116.67005 12043 ft 145 kts 73°
2026-04-26 03:02 33.92500 -116.65830 12060 ft 145 kts 75°
2026-04-26 03:02 33.92733 -116.64643 12041 ft 148 kts 76°
2026-04-26 03:02 33.92970 -116.63418 11990 ft 151 kts 76°
2026-04-26 03:03 33.93213 -116.62177 11928 ft 154 kts 77°
2026-04-26 03:03 33.93445 -116.60920 11889 ft 154 kts 77°
2026-04-26 03:03 33.93682 -116.59674 11887 ft 152 kts 77°
2026-04-26 03:03 33.93900 -116.58430 11845 ft 153 kts 75°
2026-04-26 03:04 33.94179 -116.57195 11816 ft 152 kts 75°
2026-04-26 03:04 33.94428 -116.55957 11797 ft 152 kts 77°
2026-04-26 03:04 33.94622 -116.54706 11767 ft 152 kts 80°
2026-04-26 03:04 33.94808 -116.53450 11749 ft 152 kts 79°
2026-04-26 03:05 33.94866 -116.52192 11772 ft 149 kts 96°
2026-04-26 03:05 33.94842 -116.50971 11882 ft 139 kts 83°
2026-04-26 03:05 33.95033 -116.49815 11784 ft 150 kts 75°
2026-04-26 03:05 33.95311 -116.48561 11643 ft 157 kts 75°
2026-04-26 03:06 33.95581 -116.47307 11671 ft 152 kts 75°
2026-04-26 03:06 33.95826 -116.46034 11544 ft 158 kts 77°
2026-04-26 03:06 33.96081 -116.44774 11547 ft 154 kts 75°
2026-04-26 03:06 33.96350 -116.43526 11504 ft 155 kts 75°
2026-04-26 03:07 33.96603 -116.42246 11439 ft 157 kts 77°
2026-04-26 03:07 33.96872 -116.40982 11420 ft 155 kts 75°
2026-04-26 03:07 33.97140 -116.39720 11354 ft 156 kts 76°
2026-04-26 03:07 33.97400 -116.38448 11315 ft 156 kts 75°
2026-04-26 03:08 33.97656 -116.37187 11291 ft 155 kts 77°
2026-04-26 03:08 33.97876 -116.35908 11231 ft 157 kts 79°
2026-04-26 03:08 33.98048 -116.34612 11197 ft 156 kts 82°
2026-04-26 03:08 33.98159 -116.33316 11158 ft 156 kts 85°
2026-04-26 03:09 33.98263 -116.32014 11089 ft 157 kts 78°
2026-04-26 03:09 33.98583 -116.30752 11050 ft 156 kts 70°
2026-04-26 03:09 33.98945 -116.29530 11035 ft 155 kts 70°
2026-04-26 03:09 33.99294 -116.28287 10964 ft 157 kts 72°
2026-04-26 03:10 33.99602 -116.27031 10934 ft 156 kts 74°
2026-04-26 03:10 33.99882 -116.25770 10893 ft 156 kts 74°
2026-04-26 03:10 34.00178 -116.24512 10850 ft 156 kts 74°
2026-04-26 03:10 34.00454 -116.23264 10810 ft 156 kts 75°
2026-04-26 03:11 34.00727 -116.22001 10775 ft 155 kts 75°
2026-04-26 03:11 34.00985 -116.20736 10741 ft 155 kts 76°
2026-04-26 03:11 34.01237 -116.19473 10706 ft 155 kts 76°
2026-04-26 03:11 34.01494 -116.18214 10669 ft 155 kts 76°
2026-04-26 03:12 34.01739 -116.16948 10642 ft 155 kts 77°
2026-04-26 03:12 34.01971 -116.15683 10615 ft 154 kts 77°
2026-04-26 03:12 34.02222 -116.14422 10582 ft 155 kts 75°
2026-04-26 03:12 34.02521 -116.13175 10558 ft 154 kts 71°
2026-04-26 03:13 34.02869 -116.11967 10534 ft 154 kts 69°
2026-04-26 03:13 34.03242 -116.10752 10503 ft 154 kts 69°
2026-04-26 03:13 34.03616 -116.09540 10479 ft 154 kts 69°
2026-04-26 03:13 34.03972 -116.08341 10519 ft 149 kts 77°
2026-04-26 03:14 34.03902 -116.07126 10600 ft 144 kts 105°
2026-04-26 03:14 34.03758 -116.05975 10771 ft 130 kts 73°
2026-04-26 03:14 34.04207 -116.04961 10644 ft 146 kts 59°
2026-04-26 03:14 34.04688 -116.03916 10736 ft 142 kts 62°
2026-04-26 03:15 34.05144 -116.02825 10673 ft 148 kts 62°
2026-04-26 03:15 34.05560 -116.01697 10724 ft 146 kts 69°
2026-04-26 03:15 34.05903 -116.00554 10763 ft 145 kts 70°
2026-04-26 03:15 34.06251 -115.99403 10780 ft 146 kts 69°
2026-04-26 03:16 34.06550 -115.98233 10825 ft 145 kts 75°
2026-04-26 03:16 34.06849 -115.97084 10854 ft 146 kts 69°
2026-04-26 03:16 34.07230 -115.95935 10852 ft 147 kts 67°
2026-04-26 03:16 34.07598 -115.94810 10894 ft 145 kts 69°
2026-04-26 03:17 34.07938 -115.93656 10895 ft 146 kts 71°
2026-04-26 03:17 34.08192 -115.92466 10925 ft 146 kts 76°
2026-04-26 03:17 34.08445 -115.91287 10957 ft 145 kts 74°
2026-04-26 03:17 34.08740 -115.90120 10976 ft 146 kts 71°
2026-04-26 03:18 34.09050 -115.88957 10983 ft 146 kts 77°
2026-04-26 03:18 34.09256 -115.87749 11003 ft 146 kts 78°
2026-04-26 03:18 34.09456 -115.86561 11046 ft 145 kts 79°
2026-04-26 03:18 34.09634 -115.85356 11060 ft 146 kts 79°
2026-04-26 03:19 34.09837 -115.84163 11098 ft 145 kts 76°
2026-04-26 03:19 34.10079 -115.82979 11108 ft 146 kts 75°
2026-04-26 03:19 34.10336 -115.81794 11142 ft 145 kts 75°
2026-04-26 03:19 34.10577 -115.80609 11158 ft 146 kts 76°
2026-04-26 03:20 34.10806 -115.79416 11174 ft 146 kts 78°
2026-04-26 03:20 34.10997 -115.78213 11203 ft 146 kts 78°
2026-04-26 03:20 34.11208 -115.77016 11221 ft 146 kts 77°
2026-04-26 03:20 34.11192 -115.75842 11360 ft 135 kts 113°
2026-04-26 03:21 34.10540 -115.75037 11318 ft 142 kts 154°
2026-04-26 03:21 34.09581 -115.74798 11241 ft 145 kts 187°
2026-04-26 03:21 34.08622 -115.75184 11265 ft 142 kts 208°
2026-04-26 03:21 34.07768 -115.75709 11331 ft 139 kts 208°
2026-04-26 03:22 34.06894 -115.76245 11311 ft 142 kts 207°
2026-04-26 03:22 34.06000 -115.76734 11361 ft 140 kts 204°
2026-04-26 03:22 34.05076 -115.77113 11368 ft 142 kts 197°
2026-04-26 03:22 34.04114 -115.77399 11354 ft 143 kts 200°
2026-04-26 03:23 34.03219 -115.77914 11357 ft 142 kts 210°
2026-04-26 03:23 34.02368 -115.78494 11409 ft 140 kts 210°
2026-04-26 03:23 34.01491 -115.79029 11390 ft 143 kts 206°
2026-04-26 03:23 34.00569 -115.79454 11428 ft 141 kts 198°
2026-04-26 03:24 33.99605 -115.79704 11431 ft 143 kts 188°
2026-04-26 03:24 33.98610 -115.79791 11396 ft 144 kts 193°
2026-04-26 03:24 33.97680 -115.80269 11347 ft 145 kts 209°
2026-04-26 03:24 33.96840 -115.80828 11468 ft 139 kts 211°
2026-04-26 03:25 33.95939 -115.81383 11331 ft 149 kts 205°
2026-04-26 03:25 33.94994 -115.81796 11435 ft 141 kts 200°
2026-04-26 03:25 33.94043 -115.82116 11375 ft 146 kts 196°
2026-04-26 03:25 33.93057 -115.82441 11372 ft 144 kts 197°
2026-04-26 03:26 33.92106 -115.82735 11431 ft 141 kts 194°
2026-04-26 03:26 33.91115 -115.82932 11377 ft 146 kts 187°
2026-04-26 03:26 33.90118 -115.83125 11356 ft 146 kts 195°
2026-04-26 03:26 33.89138 -115.83401 11390 ft 143 kts 195°
2026-04-26 03:27 33.88169 -115.83658 11388 ft 144 kts 192°
2026-04-26 03:27 33.87195 -115.83958 11348 ft 145 kts 200°
2026-04-26 03:27 33.86257 -115.84345 11378 ft 143 kts 199°
2026-04-26 03:27 33.85299 -115.84680 11356 ft 145 kts 195°
2026-04-26 03:28 33.84310 -115.84959 11350 ft 145 kts 194°
2026-04-26 03:28 33.83328 -115.85209 11370 ft 144 kts 193°
2026-04-26 03:28 33.82341 -115.85444 11357 ft 145 kts 192°
2026-04-26 03:28 33.81349 -115.85683 11356 ft 145 kts 193°
2026-04-26 03:29 33.80365 -115.85934 11359 ft 145 kts 193°
2026-04-26 03:29 33.79377 -115.86168 11352 ft 145 kts 195°
2026-04-26 03:29 33.78401 -115.86475 11347 ft 145 kts 196°
2026-04-26 03:29 33.77426 -115.86745 11365 ft 144 kts 192°
2026-04-26 03:30 33.76434 -115.86955 11322 ft 146 kts 194°
2026-04-26 03:30 33.75439 -115.87214 11318 ft 145 kts 193°
2026-04-26 03:30 33.74467 -115.87493 11319 ft 144 kts 197°
2026-04-26 03:30 33.73504 -115.87808 11303 ft 145 kts 195°
2026-04-26 03:31 33.72532 -115.88102 11318 ft 144 kts 197°
2026-04-26 03:31 33.71564 -115.88420 11301 ft 145 kts 196°
2026-04-26 03:31 33.70585 -115.88696 11317 ft 144 kts 192°
2026-04-26 03:31 33.69606 -115.88955 11315 ft 144 kts 195°
2026-04-26 03:32 33.68627 -115.89214 11327 ft 144 kts 192°
2026-04-26 03:32 33.67646 -115.89423 11336 ft 143 kts 193°
2026-04-26 03:32 33.66675 -115.89720 11330 ft 144 kts 197°
2026-04-26 03:32 33.65719 -115.90041 11362 ft 142 kts 197°
2026-04-26 03:33 33.64761 -115.90372 11352 ft 143 kts 197°
2026-04-26 03:33 33.64123 -115.90576 11362 ft 143 kts 196°
2026-04-26 03:33 33.63163 -115.90876 11378 ft 143 kts 195°
2026-04-26 03:33 33.62199 -115.91175 11377 ft 143 kts 196°
2026-04-26 03:34 33.61231 -115.91459 11394 ft 143 kts 195°
2026-04-26 03:34 33.60264 -115.91736 11408 ft 143 kts 196°
2026-04-26 03:34 33.59305 -115.92059 11419 ft 143 kts 198°
2026-04-26 03:34 33.58351 -115.92397 11440 ft 142 kts 198°
2026-04-26 03:35 33.57395 -115.92709 11447 ft 143 kts 195°
2026-04-26 03:35 33.56422 -115.92965 11461 ft 143 kts 193°
2026-04-26 03:35 33.55452 -115.93217 11476 ft 143 kts 193°
2026-04-26 03:35 33.54482 -115.93470 11488 ft 143 kts 198°
2026-04-26 03:36 33.53561 -115.93886 11460 ft 144 kts 201°
2026-04-26 03:36 33.52625 -115.94273 11499 ft 141 kts 200°
2026-04-26 03:36 33.51696 -115.94668 11461 ft 143 kts 210°
2026-04-26 03:36 33.50916 -115.95418 11437 ft 143 kts 228°
2026-04-26 03:37 33.50329 -115.96350 11501 ft 138 kts 238°
2026-04-26 03:37 33.49809 -115.97337 11480 ft 141 kts 239°
2026-04-26 03:37 33.49262 -115.98308 11506 ft 139 kts 236°
2026-04-26 03:37 33.48705 -115.99261 11513 ft 140 kts 235°
2026-04-26 03:38 33.48118 -116.00198 11521 ft 140 kts 233°
2026-04-26 03:38 33.47505 -116.01106 11540 ft 140 kts 231°
2026-04-26 03:38 33.46892 -116.02016 11538 ft 141 kts 233°
2026-04-26 03:38 33.46317 -116.02964 11546 ft 140 kts 235°
2026-04-26 03:39 33.45742 -116.03890 11564 ft 140 kts 234°
2026-04-26 03:39 33.45143 -116.04819 11568 ft 141 kts 232°
2026-04-26 03:39 33.44553 -116.05750 11575 ft 141 kts 235°
2026-04-26 03:39 33.43994 -116.06711 11585 ft 140 kts 237°
2026-04-26 03:40 33.43467 -116.07695 11590 ft 140 kts 238°
2026-04-26 03:40 33.42958 -116.08660 11602 ft 140 kts 238°
2026-04-26 03:40 33.42437 -116.09649 11605 ft 140 kts 238°
2026-04-26 03:40 33.41916 -116.10638 11612 ft 141 kts 239°
2026-04-26 03:41 33.41402 -116.11635 11614 ft 141 kts 239°
2026-04-26 03:41 33.40884 -116.12633 11619 ft 141 kts 239°
2026-04-26 03:41 33.40366 -116.13628 11613 ft 141 kts 239°
2026-04-26 03:41 33.39846 -116.14624 11618 ft 141 kts 239°
2026-04-26 03:42 33.39323 -116.15623 11621 ft 141 kts 238°
2026-04-26 03:42 33.38765 -116.16598 11601 ft 142 kts 235°
2026-04-26 03:42 33.38189 -116.17565 11568 ft 143 kts 234°
2026-04-26 03:42 33.37476 -116.18379 11535 ft 144 kts 218°
2026-04-26 03:43 33.36688 -116.19123 11513 ft 145 kts 220°
2026-04-26 03:43 33.35917 -116.19883 11553 ft 142 kts 221°
2026-04-26 03:43 33.35161 -116.20647 11530 ft 144 kts 221°
2026-04-26 03:43 33.34365 -116.21370 11532 ft 143 kts 217°
2026-04-26 03:44 33.33603 -116.22125 11557 ft 142 kts 224°
2026-04-26 03:44 33.32905 -116.22949 11577 ft 141 kts 227°
2026-04-26 03:44 33.32246 -116.23805 11577 ft 141 kts 230°
2026-04-26 03:44 33.31615 -116.24703 11583 ft 141 kts 231°
2026-04-26 03:45 33.30936 -116.25549 11582 ft 142 kts 224°
2026-04-26 03:45 33.30219 -116.26360 11591 ft 141 kts 225°
2026-04-26 03:45 33.29526 -116.27191 11603 ft 141 kts 227°
2026-04-26 03:45 33.28860 -116.28057 11604 ft 141 kts 229°
2026-04-26 03:46 33.28181 -116.28908 11612 ft 141 kts 226°
2026-04-26 03:46 33.27483 -116.29734 11622 ft 141 kts 226°
2026-04-26 03:46 33.26759 -116.30531 11625 ft 142 kts 222°
2026-04-26 03:47 33.25284 -116.32085 11640 ft 141 kts 221°
2026-04-26 03:47 33.24535 -116.32845 11643 ft 141 kts 222°
2026-04-26 03:47 33.23808 -116.33616 11648 ft 141 kts 224°
2026-04-26 03:47 33.23109 -116.34437 11655 ft 141 kts 227°
2026-04-26 03:48 33.22460 -116.35320 11655 ft 141 kts 232°
2026-04-26 03:48 33.21876 -116.36264 11655 ft 141 kts 233°
2026-04-26 03:48 33.21218 -116.37137 11662 ft 141 kts 225°
2026-04-26 03:48 33.20473 -116.37906 11662 ft 142 kts 221°
2026-04-26 03:49 33.19720 -116.38674 11657 ft 142 kts 222°
2026-04-26 03:49 33.18973 -116.39442 11660 ft 142 kts 221°
2026-04-26 03:49 33.18216 -116.40206 11633 ft 143 kts 221°
2026-04-26 03:49 33.17473 -116.40983 11604 ft 144 kts 222°
2026-04-26 03:50 33.16713 -116.41758 11602 ft 143 kts 222°
2026-04-26 03:50 33.15959 -116.42532 11595 ft 143 kts 219°
2026-04-26 03:50 33.15174 -116.43270 11594 ft 143 kts 220°
2026-04-26 03:50 33.14409 -116.44018 11605 ft 142 kts 221°
2026-04-26 03:51 33.13668 -116.44799 11603 ft 142 kts 224°
2026-04-26 03:51 33.12942 -116.45603 11601 ft 142 kts 222°
2026-04-26 03:51 33.12171 -116.46348 11588 ft 143 kts 220°
2026-04-26 03:51 33.11390 -116.47095 11566 ft 144 kts 220°
2026-04-26 03:52 33.10623 -116.47856 11590 ft 142 kts 222°
2026-04-26 03:52 33.09878 -116.48629 11597 ft 142 kts 222°
2026-04-26 03:52 33.09137 -116.49389 11586 ft 143 kts 221°
2026-04-26 03:52 33.08372 -116.50143 11591 ft 142 kts 220°
2026-04-26 03:53 33.07612 -116.50905 11584 ft 143 kts 222°
2026-04-26 03:53 33.06860 -116.51676 11585 ft 143 kts 221°
2026-04-26 03:53 33.06097 -116.52433 11587 ft 142 kts 221°
2026-04-26 03:53 33.05330 -116.53185 11578 ft 143 kts 220°
2026-04-26 03:54 33.04557 -116.53939 11567 ft 144 kts 220°
2026-04-26 03:54 33.03795 -116.54701 11575 ft 143 kts 221°
2026-04-26 03:54 33.03051 -116.55473 11550 ft 144 kts 223°
2026-04-26 03:54 33.02285 -116.56267 11553 ft 143 kts 221°
2026-04-26 03:55 33.01528 -116.57037 11546 ft 143 kts 221°
2026-04-26 03:55 33.00775 -116.57799 11511 ft 145 kts 220°
2026-04-26 03:55 32.99984 -116.58542 11501 ft 144 kts 219°
2026-04-26 03:55 32.99184 -116.59262 11514 ft 143 kts 218°
2026-04-26 03:56 32.98384 -116.59967 11509 ft 144 kts 218°
2026-04-26 03:56 32.97575 -116.60679 11488 ft 145 kts 218°
2026-04-26 03:56 32.96773 -116.61393 11514 ft 143 kts 218°
2026-04-26 03:56 32.95972 -116.62104 11500 ft 145 kts 218°
2026-04-26 03:57 32.95169 -116.62819 11523 ft 143 kts 218°
2026-04-26 03:57 32.94370 -116.63515 11535 ft 143 kts 214°
2026-04-26 03:57 32.93454 -116.64012 11484 ft 147 kts 195°
2026-04-26 03:57 32.92453 -116.64223 11515 ft 145 kts 191°
2026-04-26 03:58 32.91468 -116.64416 11542 ft 144 kts 191°
2026-04-26 03:58 32.90469 -116.64599 11521 ft 145 kts 190°
2026-04-26 03:58 32.89474 -116.64773 11552 ft 144 kts 190°
2026-04-26 03:58 32.88489 -116.64942 11543 ft 145 kts 189°
2026-04-26 03:59 32.87496 -116.65144 11537 ft 145 kts 194°
2026-04-26 03:59 32.86519 -116.65440 11536 ft 145 kts 197°
2026-04-26 03:59 32.85551 -116.65749 11552 ft 144 kts 196°
2026-04-26 03:59 32.84569 -116.66007 11539 ft 145 kts 193°
2026-04-26 04:00 32.83582 -116.66262 11562 ft 144 kts 194°
2026-04-26 04:00 32.82608 -116.66521 11576 ft 144 kts 194°
2026-04-26 04:00 32.81626 -116.66766 11566 ft 145 kts 193°
2026-04-26 04:00 32.80638 -116.66986 11578 ft 144 kts 191°
2026-04-26 04:01 32.79641 -116.67158 11568 ft 145 kts 188°
2026-04-26 04:01 32.78638 -116.67263 11587 ft 144 kts 185°
2026-04-26 04:01 32.77676 -116.67506 11549 ft 144 kts 208°
2026-04-26 04:01 32.77010 -116.68283 11695 ft 133 kts 240°
2026-04-26 04:02 32.76526 -116.69292 11550 ft 144 kts 242°
2026-04-26 04:02 32.76044 -116.70313 11612 ft 139 kts 241°
2026-04-26 04:02 32.75541 -116.71308 11580 ft 143 kts 239°
2026-04-26 04:02 32.75014 -116.72311 11578 ft 142 kts 239°
2026-04-26 04:03 32.74499 -116.73304 11617 ft 140 kts 239°
2026-04-26 04:03 32.73979 -116.74297 11598 ft 142 kts 238°
2026-04-26 04:03 32.73432 -116.75274 11610 ft 141 kts 236°
2026-04-26 04:03 32.72896 -116.76249 11598 ft 142 kts 240°
2026-04-26 04:04 32.72413 -116.77275 11606 ft 141 kts 242°
2026-04-26 04:04 32.71925 -116.78284 11622 ft 141 kts 239°
2026-04-26 04:04 32.71395 -116.79269 11602 ft 142 kts 238°
2026-04-26 04:04 32.70866 -116.80253 11633 ft 140 kts 238°
2026-04-26 04:05 32.70329 -116.81217 11627 ft 141 kts 236°
2026-04-26 04:05 32.69753 -116.82232 11285 ft 160 kts 237°
2026-04-26 04:05 32.69120 -116.83378 10824 ft 171 kts 237°
2026-04-26 04:05 32.68464 -116.84557 10506 ft 170 kts 237°
2026-04-26 04:06 32.67807 -116.85725 10137 ft 171 kts 237°
2026-04-26 04:06 32.67134 -116.86899 9772 ft 171 kts 236°
2026-04-26 04:06 32.66483 -116.88069 9434 ft 168 kts 237°
2026-04-26 04:06 32.66008 -116.89292 9202 ft 157 kts 265°
2026-04-26 04:07 32.66311 -116.90478 8995 ft 155 kts 295°
2026-04-26 04:07 32.66820 -116.91676 8469 ft 168 kts 296°
2026-04-26 04:07 32.67254 -116.92957 8095 ft 165 kts 285°
2026-04-26 04:07 32.67512 -116.94267 7736 ft 162 kts 282°
2026-04-26 04:08 32.67761 -116.95580 7268 ft 165 kts 282°
2026-04-26 04:08 32.68010 -116.96901 6875 ft 162 kts 282°
2026-04-26 04:08 32.68285 -116.98186 6530 ft 160 kts 284°
2026-04-26 04:08 32.68573 -116.99459 6134 ft 160 kts 284°
2026-04-26 04:09 32.68859 -117.00748 5705 ft 162 kts 284°
2026-04-26 04:09 32.69162 -117.02023 5376 ft 158 kts 286°
2026-04-26 04:09 32.69466 -117.03269 5079 ft 156 kts 285°
2026-04-26 04:09 32.69757 -117.04499 4751 ft 157 kts 285°
2026-04-26 04:10 32.70050 -117.05741 4434 ft 156 kts 285°
2026-04-26 04:10 32.70347 -117.06978 4139 ft 155 kts 285°
2026-04-26 04:10 32.70474 -117.07504 4022 ft 154 kts 285°
2026-04-26 04:10 32.70763 -117.08729 3751 ft 153 kts 284°
2026-04-26 04:11 32.70982 -117.09952 3462 ft 153 kts 276°
2026-04-26 04:11 32.71031 -117.11208 3233 ft 150 kts 271°
2026-04-26 04:11 32.71116 -117.12438 2934 ft 152 kts 280°
2026-04-26 04:11 32.71493 -117.13638 2479 ft 160 kts 298°
2026-04-26 04:12 32.72035 -117.14816 1928 ft 162 kts 299°
2026-04-26 04:12 32.72566 -117.16010 1040 ft 165 kts 291°
2026-04-26 04:12 32.72968 -117.17243 481 ft 152 kts 280°
2026-04-26 04:12 32.73235 -117.18436 31 ft 143 kts 286°
2026-04-26 04:13 32.73487 -117.19465 31 ft 118 kts 285°
2026-04-26 04:13 32.73713 -117.20322 117 ft 101 kts 288°
2026-04-26 04:13 32.73959 -117.21162 268 ft 112 kts 289°
2026-04-26 04:13 32.74213 -117.21981 695 ft 94 kts 290°
2026-04-26 04:14 32.74408 -117.22618 1135 ft 77 kts 289°
2026-04-26 04:14 32.74759 -117.23145 1297 ft 93 kts 315°
2026-04-26 04:14 32.75367 -117.23583 1459 ft 106 kts 345°
2026-04-26 04:14 32.76145 -117.23457 1496 ft 130 kts 27°
2026-04-26 04:15 32.76813 -117.22626 1431 ft 144 kts 60°
2026-04-26 04:15 32.77044 -117.21494 1578 ft 139 kts 89°
2026-04-26 04:15 32.76880 -117.20360 1649 ft 141 kts 108°
2026-04-26 04:15 32.76484 -117.19313 1777 ft 137 kts 118°
2026-04-26 04:16 32.76038 -117.18310 1845 ft 138 kts 118°
2026-04-26 04:16 32.75599 -117.17290 1906 ft 138 kts 117°
2026-04-26 04:16 32.75152 -117.16293 1942 ft 134 kts 121°
2026-04-26 04:16 32.74644 -117.15393 1968 ft 121 kts 139°
2026-04-26 04:17 32.73909 -117.15200 1969 ft 116 kts 195°
2026-04-26 04:17 32.73043 -117.15595 1138 ft 152 kts 208°
2026-04-26 04:17 32.72827 -117.16696 435 ft 150 kts 283°
2026-04-26 04:17 32.73068 -117.17779 450 ft 127 kts 286°
2026-04-26 04:18 32.73330 -117.18806 579 ft 130 kts 286°
2026-04-26 04:18 32.73584 -117.19802 834 ft 125 kts 286°
2026-04-26 04:18 32.73871 -117.20758 989 ft 119 kts 296°
2026-04-26 04:18 32.74472 -117.21222 1293 ft 100 kts
2026-04-26 04:19 32.74883 -117.20968 1317 ft 109 kts 40°
2026-04-26 04:19 32.75498 -117.19789 1019 ft 139 kts 73°
2026-04-26 04:19 32.75632 -117.19019 937 ft 143 kts 80°
2026-04-26 04:19 32.75730 -117.17884 1029 ft 132 kts 87°
2026-04-26 04:20 32.75706 -117.16424 1001 ft 136 kts 95°
2026-04-26 04:20 32.75548 -117.15331 967 ft 129 kts 111°
2026-04-26 04:20 32.74996 -117.14640 1115 ft 112 kts 158°
2026-04-26 04:20 32.74484 -117.14482 1056 ft 117 kts 171°
2026-04-26 04:21 32.73677 -117.14356 957 ft 117 kts 178°
2026-04-26 04:21 32.72907 -117.14488 946 ft 101 kts 225°
2026-04-26 04:21 32.72643 -117.15287 721 ft 115 kts 257°
2026-04-26 04:21 32.72709 -117.16209 487 ft 109 kts 281°
2026-04-26 04:22 32.72898 -117.17061 233 ft 105 kts 284°
2026-04-26 04:22 32.73083 -117.17836 121 ft 89 kts 285°
2026-04-26 04:22 32.73243 -117.18496 28 ft 76 kts 285°
2026-04-26 04:22 32.73376 -117.19044 20 ft 62 kts 285°
2026-04-26 04:23 32.73481 -117.19491 21 ft 49 kts 286°
2026-04-26 04:23 32.73541 -117.19732 25 ft 21 kts 286°
2026-04-26 04:23 32.73522 -117.19831 23 ft 12 kts 208°
2026-04-26 04:23 32.73467 -117.19831 22 ft 0 kts 140°
2026-04-26 04:24 32.73462 -117.19825 22 ft 4 kts 128°
2026-04-26 04:24 32.73444 -117.19761 21 ft 11 kts 105°
2026-04-26 04:24 32.73421 -117.19661 21 ft 14 kts 106°
2026-04-26 04:24 32.73395 -117.19550 22 ft 14 kts 105°
2026-04-26 04:25 32.73365 -117.19428 21 ft 15 kts 106°
2026-04-26 04:25 32.73331 -117.19290 18 ft 20 kts 106°
2026-04-26 04:25 32.73346 -117.19154 18 ft 17 kts 28°
2026-04-26 04:25 32.73437 -117.19088 18 ft 14 kts 36°
2026-04-26 04:26 32.73482 -117.19012 16 ft 10 kts 103°
2026-04-26 04:26 32.73464 -117.18940 17 ft 8 kts 106°
2026-04-26 04:26 32.73452 -117.18889 17 ft 6 kts 107°
2026-04-26 04:26 32.73440 -117.18842 17 ft 8 kts 104°
2026-04-26 04:27 32.73422 -117.18765 16 ft 12 kts 106°
2026-04-26 04:27 32.73399 -117.18673 17 ft 11 kts 105°
2026-04-26 04:27 32.73391 -117.18608 19 ft 5 kts 62°
2026-04-26 04:27 32.73407 -117.18578 19 ft 4 kts 43°
2026-04-26 04:28 32.73431 -117.18560 19 ft 5 kts 13°
2026-04-26 04:28 32.73442 -117.18558 19 ft 0 kts